Elmas current weather conditions

sailwx.info

Wind from 340 at 4 knots

Air temperature 14.0° C
Dewpoint 13.0° C

Last reported at 2014-Oct-26 00:20 UTC.
Time now 2014-Oct-26 01:52 UTC

Location: N 39°15' E 009°03'.
View on Google Maps.

See reports from other nearby stations

  
Tides and Currents Weather Stations Pressure Air Temp Water Temp Dewpoint Dewpoint Depression Visibility Wind Speed Wind Dir Waves Ship Positions
date/time (UTC)wind fromknots sea level pressurealtimeterstation pressurevisibilityair tempwater tempwave heightnotes
2014-Oct-26 00:20 340 4 14.0
2014-Oct-25 23:50 340 4 14.0
2014-Oct-25 23:20 320 4 14.0
2014-Oct-25 22:50 330 4 15.0
2014-Oct-25 22:20 330 4 15.0
2014-Oct-25 21:50 330 4 16.0
2014-Oct-25 21:20 320 5 16.0
2014-Oct-25 20:50 330 4 16.0
2014-Oct-25 20:20 330 5 17.0
2014-Oct-25 19:50 290 3 18.0
2014-Oct-25 19:20 5.418.0
2014-Oct-25 18:50 340 5 5.419.0
2014-Oct-25 18:20 360 4 5.419.0
2014-Oct-25 17:50 340 5 5.420.0
2014-Oct-25 17:20 360 7 20.0
2014-Oct-25 16:50 070 4 20.0
2014-Oct-25 16:20 120 8 21.0
2014-Oct-25 15:50 140 9 5.421.0
2014-Oct-25 15:20 150 9 5.422.0
2014-Oct-25 14:50 160 10 5.422.0
2014-Oct-25 14:20 160 10 5.422.0
2014-Oct-25 13:50 160 9 23.0
2014-Oct-25 13:20 170 8 23.0
2014-Oct-25 12:50 170 7 24.0
2014-Oct-25 12:20 180 6 24.0
2014-Oct-25 11:50 220 4 24.0
2014-Oct-25 11:20 24.0
2014-Oct-25 10:50 220 3 24.0
2014-Oct-25 10:20 300 4 22.0
2014-Oct-25 09:50 330 3 22.0
2014-Oct-25 09:20 310 5 20.0
2014-Oct-25 08:50 300 7 18.0
2014-Oct-25 08:20 310 7 16.0
2014-Oct-25 07:50 320 8 15.0
2014-Oct-25 07:20 340 4 13.0
2014-Oct-25 06:50 320 5 12.0
2014-Oct-25 06:20 330 4 11.0
2014-Oct-25 05:50 330 4 10.0
2014-Oct-25 05:20 350 5 11.0
2014-Oct-25 04:50 340 5 11.0
2014-Oct-25 04:20 320 5 11.0
2014-Oct-25 03:50 320 6 11.0
2014-Oct-25 03:20 320 6 12.0
2014-Oct-25 02:50 330 6 12.0
2014-Oct-25 02:20 340 5 12.0
2014-Oct-25 01:50 320 5 13.0
2014-Oct-25 01:20 330 6 13.0
2014-Oct-25 00:50 330 5 13.0
2014-Oct-25 00:20 330 6 13.0
2014-Oct-24 23:50 320 6 14.0
2014-Oct-24 23:20 310 5 14.0
2014-Oct-24 22:50 320 6 14.0
2014-Oct-24 22:20 320 4 15.0
2014-Oct-24 21:50 310 5 16.0
2014-Oct-24 21:20 300 6 16.0
2014-Oct-24 20:50 310 5 17.0
2014-Oct-24 20:20 010 4 17.0
2014-Oct-24 19:50 020 5 18.0
2014-Oct-24 19:20 010 6 18.0
2014-Oct-24 18:50 350 6 18.0
2014-Oct-24 18:20 080 3 19.0
2014-Oct-24 17:50 120 5 5.420.0
2014-Oct-24 17:20 130 8 5.420.0
2014-Oct-24 16:50 130 9 21.0
2014-Oct-24 16:20 130 10 21.0
2014-Oct-24 15:50 130 11 22.0
2014-Oct-24 15:20 140 12 22.0
2014-Oct-24 14:50 130 12 23.0
2014-Oct-24 14:20 160 8 24.0
2014-Oct-24 13:50 210 5 25.0
2014-Oct-24 13:20 290 5 25.0
2014-Oct-24 12:50 300 5 25.0
2014-Oct-24 12:20 280 5 24.0
2014-Oct-24 11:50 270 5 24.0
2014-Oct-24 11:20 290 6 23.0
2014-Oct-24 10:50 300 8 22.0
2014-Oct-24 10:20 300 7 21.0
2014-Oct-24 09:50 300 8 20.0
2014-Oct-24 09:20 290 7 19.0
2014-Oct-24 08:50 300 7 18.0
2014-Oct-24 08:20 320 8 16.0
2014-Oct-24 07:50 310 9 14.0
2014-Oct-24 07:20 300 8 13.0
2014-Oct-24 06:50 310 7 12.0
2014-Oct-24 06:20 320 6 11.0
2014-Oct-24 05:50 310 8 11.0
2014-Oct-24 05:20 310 8 11.0
2014-Oct-24 04:50 320 8 11.0
2014-Oct-24 04:20 320 8 11.0
2014-Oct-24 03:50 320 7 11.0
2014-Oct-24 03:20 320 7 11.0
2014-Oct-24 02:50 300 4 12.0
2014-Oct-24 02:20 360 6 12.0
2014-Oct-24 01:50 340 6 12.0
2014-Oct-24 01:20 340 7 12.0